Temp
-18 -18 -18 -18 -18 -18 -18 -18 -18 -18 -18 -18 -18 -18 -18 -18 -18 -18 -18 -18 -18 -18 -18 -19 -19 -19 -19 -19 -19 -19 -19 -19 -19 -19 -19 -19 -19 -19 -19 -19 -19 -18
-19 -19 -19 -19 -19 -19 -19 -19 -19 -19 -19 -19 -19 -19 -19 -19 -19 -19 -19 -19 -19 -19 -18 -19 -19 -19 -19 -19 -20 -20 -20 -20 -20 -20 -20 -20 -20 -20 -20 -20 -20 -20
-20 -20 -20 -20 -20 -20 -20 -20 -19 -19 -19 -19 -19 -19 -20 -20 -20 -20 -20 -20 -20 -20 -19 -19 -19 -19 -19 -19 -19 -20 -20 -20 -20 -20 -20 -20 -20 -20 -20 -20 -20 -20
-21 -21 -21 -21 -21 -21 -21 -20 -20 -20 -20 -20 -20 -20 -20 -20 -20 -20 -20 -20 -20 -20 -20 -20 -20 -20 -20 -20 -20 -20 -20 -20 -20 -20 -20 -20 -20 -20 -20 -20 -20 -20
-21 -21 -21 -21 -21 -21 -21 -21 -21 -21 -21 -21 -21 -21 -21 -21 -21 -21 -21 -21 -21 -21 -21 -21 -21 -21 -21 -21 -21 -21 -21 -20 -20 -20 -20 -20 -20 -20 -20 -20 -20 -20
-22 -22 -22 -22 -22 -22 -22 -22 -22 -22 -22 -22 -22 -22 -22 -21 -21 -21 -21 -21 -21 -21 -21 -21 -21 -21 -21 -21 -21 -21 -21 -21 -21 -21 -21 -21 -21 -21 -21 -21 -21 -21
-22 -22 -22 -22 -22 -22 -22 -22 -22 -22 -22 -22 -22 -22 -22 -22 -22 -22 -22 -22 -22 -22 -22 -22 -22 -22 -22 -22 -22 -22 -22 -22 -22 -22 -21 -21 -21 -21 -21 -21 -21 -21
-23 -23 -22 -22 -22 -22 -22 -22 -22 -22 -22 -22 -22 -22 -22 -22 -22 -22 -22 -22 -22 -22 -22 -22 -22 -22 -22 -22 -22 -22 -22 -22 -22 -22 -22 -22 -22 -22 -22 -22 -22 -21
-23 -23 -23 -23 -23 -23 -23 -23 -23 -23 -23 -23 -23 -23 -22 -22 -23 -23 -23 -23 -23 -23 -23 -23 -23 -23 -23 -23 -22 -22 -22 -22 -22 -22 -22 -22 -22 -22 -22 -22 -22 -22
-23 -23 -23 -23 -23 -23 -23 -23 -23 -23 -23 -23 -23 -23 -23 -23 -23 -23 -23 -23 -23 -23 -23 -23 -23 -23 -23 -23 -23 -23 -23 -23 -23 -23 -23 -23 -23 -23 -23 -23 -23 -23
-23 -23 -23 -23 -23 -23 -23 -23 -23 -23 -23 -23 -23 -23 -23 -23 -23 -23 -23 -23 -23 -23 -23 -23 -24 -24 -24 -24 -24 -24 -23 -23 -23 -23 -23 -23 -23 -23 -23 -23 -23 -23
-23 -23 -23 -23 -23 -23 -23 -23 -23 -24 -24 -24 -24 -24 -24 -24 -24 -24 -24 -24 -24 -24 -24 -24 -24 -24 -24 -24 -24 -24 -24 -24 -24 -24 -24 -24 -24 -24 -24 -24 -24 -23
-24 -24 -24 -24 -24 -24 -24 -24 -24 -24 -24 -24 -24 -24 -24 -24 -24 -24 -24 -24 -25 -25 -25 -25 -25 -25 -25 -25 -25 -25 -25 -25 -25 -25 -25 -25 -25 -25 -25 -25 -25 -24
-24 -24 -24 -24 -24 -24 -24 -24 -24 -24 -24 -24 -24 -24 -24 -25 -25 -25 -25 -25 -25 -26 -26 -26 -26 -26 -26 -26 -26 -26 -26 -26 -26 -26 -26 -26 -26 -26 -26 -26 -26 -26
-25 -24 -25 -25 -25 -25 -25 -25 -25 -25 -25 -25 -25 -25 -25 -25 -26 -26 -26 -26 -26 -27 -27 -27 -28 -28 -28 -28 -28 -28 -28 -28 -28 -28 -28 -28 -28 -28 -28 -28 -27 -27
-25 -25 -25 -25 -25 -25 -25 -25 -25 -25 -25 -26 -26 -26 -26 -26 -27 -27 -27 -28 -28 -28 -29 -29 -29 -29 -30 -30 -30 -30 -30 -30 -30 -30 -29 -29 -29 -29 -29 -29 -29 -28
-25 -25 -25 -25 -25 -25 -25 -26 -26 -26 -26 -26 -27 -27 -27 -28 -28 -29 -29 -29 -29 -30 -30 -30 -31 -31 -31 -31 -31 -31 -31 -31 -31 -30 -30 -30 -30 -30 -30 -29 -29 -29
-25 -25 -25 -26 -26 -26 -26 -27 -27 -27 -27 -28 -28 -29 -29 -29 -30 -30 -30 -30 -31 -31 -31 -31 -31 -31 -31 -31 -31 -31 -31 -31 -31 -31 -31 -31 -30 -30 -30 -30 -30 -30
-26 -26 -26 -26 -27 -27 -27 -28 -28 -29 -29 -29 -30 -30 -31 -31 -31 -31 -31 -31 -31 -31 -31 -31 -31 -32 -32 -32 -31 -31 -31 -31 -31 -31 -31 -31 -31 -30 -30 -30 -30 -30
-26 -27 -27 -27 -28 -28 -29 -29 -30 -30 -30 -31 -31 -31 -31 -31 -31 -32 -32 -32 -32 -32 -32 -32 -32 -32 -32 -32 -32 -32 -32 -31 -31 -31 -31 -31 -31 -31 -30 -30 -30 -30
-27 -28 -28 -28 -29 -29 -30 -30 -31 -31 -31 -31 -31 -31 -32 -32 -32 -32 -32 -32 -32 -32 -32 -32 -32 -32 -32 -32 -32 -32 -32 -31 -31 -31 -31 -31 -31 -31 -30 -30 -30 -30
-28 -29 -29 -29 -30 -30 -31 -31 -31 -31 -32 -32 -32 -32 -32 -32 -32 -32 -32 -32 -32 -32 -32 -32 -32 -32 -32 -32 -32 -32 -32 -32 -31 -31 -31 -31 -31 -31 -31 -30 -30 -30
-29 -30 -30 -30 -31 -31 -31 -32 -32 -32 -32 -32 -32 -32 -32 -32 -32 -32 -32 -32 -32 -32 -32 -32 -32 -32 -32 -32 -32 -32 -32 -32 -32 -31 -31 -31 -31 -31 -31 -30 -30 -30
-30 -31 -31 -31 -32 -32 -32 -32 -32 -32 -32 -32 -32 -32 -32 -32 -32 -32 -32 -32 -32 -32 -32 -32 -32 -32 -32 -32 -32 -32 -32 -32 -32 -32 -31 -31 -31 -31 -31 -31 -31 -31
-31 -31 -32 -32 -32 -32 -32 -32 -32 -33 -33 -33 -33 -33 -33 -33 -33 -33 -33 -33 -33 -33 -33 -33 -33 -33 -33 -33 -33 -32 -32 -32 -32 -32 -32 -31 -31 -31 -31 -31 -31 -31
-32 -32 -32 -32 -33 -33 -33 -33 -33 -33 -33 -33 -33 -33 -33 -33 -33 -33 -33 -33 -33 -33 -33 -33 -33 -33 -33 -33 -33 -33 -33 -32 -32 -32 -32 -32 -31 -31 -31 -31 -31 -32
Height
5694 5693 5692 5691 5690 5688 5687 5686 5684 5683 5682 5680 5679 5678 5676 5675 5673 5672 5670 5668 5666 5665 5664 5663 5663 5662 5661 5660 5659 5659 5658 5658 5657 5656 5655 5654 5654 5654 5654 5653 5653 5652
5686 5685 5683 5682 5681 5679 5678 5676 5674 5673 5671 5670 5669 5668 5666 5665 5663 5662 5660 5659 5657 5656 5655 5654 5653 5652 5650 5649 5648 5648 5647 5647 5646 5645 5644 5643 5642 5642 5641 5642 5642 5641
5677 5676 5674 5673 5671 5670 5668 5666 5665 5663 5661 5660 5659 5657 5656 5655 5653 5652 5650 5649 5647 5646 5646 5645 5643 5642 5641 5639 5638 5637 5636 5635 5635 5634 5633 5631 5630 5630 5629 5629 5629 5629
5668 5666 5665 5663 5662 5660 5659 5657 5655 5654 5652 5651 5649 5648 5646 5645 5644 5642 5640 5639 5637 5636 5635 5634 5633 5632 5631 5629 5628 5627 5626 5624 5623 5623 5622 5620 5619 5618 5617 5617 5617 5616
5659 5657 5656 5654 5652 5651 5649 5648 5646 5645 5643 5642 5640 5639 5638 5636 5634 5632 5630 5629 5627 5626 5625 5624 5622 5621 5620 5619 5617 5616 5615 5613 5612 5611 5611 5609 5607 5606 5605 5605 5605 5604
5649 5648 5647 5645 5643 5642 5640 5639 5637 5636 5634 5633 5632 5630 5629 5627 5625 5623 5621 5618 5616 5615 5614 5612 5611 5610 5609 5608 5606 5604 5603 5602 5601 5600 5600 5599 5596 5594 5593 5592 5592 5592
5640 5639 5638 5636 5635 5633 5632 5630 5629 5627 5625 5624 5622 5620 5618 5617 5615 5612 5610 5608 5605 5603 5602 5600 5598 5597 5596 5595 5594 5592 5591 5589 5588 5587 5587 5586 5585 5583 5581 5580 5580 5580
5631 5630 5629 5627 5626 5624 5622 5621 5619 5617 5615 5614 5612 5610 5608 5606 5604 5602 5599 5597 5594 5592 5590 5588 5586 5585 5583 5582 5581 5579 5577 5575 5574 5573 5572 5572 5571 5569 5568 5566 5566 5567
5622 5621 5619 5618 5616 5614 5613 5611 5609 5607 5605 5603 5601 5599 5597 5595 5592 5590 5587 5585 5583 5580 5578 5576 5574 5572 5570 5569 5567 5566 5564 5562 5560 5558 5557 5557 5556 5554 5553 5551 5551 5552
5613 5611 5610 5608 5606 5604 5602 5600 5598 5596 5594 5592 5589 5587 5584 5582 5579 5577 5574 5572 5570 5567 5565 5563 5560 5559 5557 5555 5553 5552 5551 5549 5547 5545 5543 5542 5541 5539 5538 5536 5535 5536
5603 5601 5599 5597 5594 5592 5590 5588 5586 5584 5581 5579 5577 5574 5572 5569 5566 5564 5561 5558 5556 5553 5551 5549 5546 5545 5543 5541 5539 5537 5536 5535 5534 5532 5530 5528 5527 5525 5523 5522 5520 5520
5592 5590 5588 5585 5583 5580 5578 5576 5574 5571 5569 5567 5565 5562 5559 5557 5554 5551 5548 5545 5542 5540 5537 5535 5533 5530 5528 5526 5524 5523 5521 5520 5519 5518 5516 5515 5513 5511 5509 5507 5505 5504
5582 5579 5577 5575 5572 5569 5567 5565 5562 5560 5558 5555 5553 5550 5547 5545 5541 5538 5535 5532 5529 5526 5524 5521 5519 5516 5514 5512 5510 5508 5507 5505 5504 5503 5501 5500 5498 5496 5494 5492 5491 5489
5572 5569 5567 5565 5562 5559 5556 5554 5551 5548 5546 5543 5540 5538 5535 5532 5529 5526 5522 5519 5516 5513 5510 5508 5505 5503 5500 5498 5496 5495 5493 5491 5490 5488 5487 5486 5484 5482 5479 5477 5476 5474
5562 5559 5557 5555 5552 5549 5546 5543 5540 5536 5533 5530 5528 5525 5522 5519 5516 5513 5510 5507 5504 5501 5498 5496 5493 5490 5487 5485 5483 5482 5480 5478 5477 5475 5473 5472 5470 5469 5466 5463 5461 5460
5551 5549 5547 5544 5541 5538 5535 5531 5528 5524 5521 5518 5515 5512 5510 5507 5504 5501 5498 5496 5493 5490 5488 5485 5482 5479 5476 5473 5471 5469 5468 5467 5466 5464 5462 5459 5458 5456 5455 5452 5450 5448
5541 5538 5535 5532 5529 5526 5523 5519 5516 5512 5509 5506 5503 5500 5497 5495 5492 5490 5487 5485 5483 5480 5478 5475 5472 5469 5466 5464 5461 5458 5457 5456 5454 5453 5451 5448 5446 5444 5443 5441 5439 5437
5530 5526 5523 5520 5517 5514 5511 5507 5504 5500 5497 5494 5491 5489 5486 5484 5481 5479 5477 5475 5473 5471 5469 5467 5464 5461 5458 5455 5452 5449 5446 5445 5443 5442 5440 5438 5435 5433 5431 5429 5428 5426
5518 5515 5511 5508 5506 5503 5499 5496 5493 5490 5487 5484 5482 5479 5477 5475 5472 5470 5468 5466 5464 5462 5461 5458 5456 5452 5449 5446 5444 5441 5437 5435 5433 5431 5429 5427 5424 5422 5420 5418 5416 5414
5507 5504 5501 5498 5495 5492 5489 5486 5483 5480 5478 5475 5473 5471 5469 5466 5464 5462 5460 5458 5456 5454 5452 5450 5447 5444 5440 5437 5434 5432 5428 5425 5423 5420 5418 5416 5413 5411 5409 5407 5405 5403
5497 5494 5491 5488 5485 5482 5479 5476 5474 5471 5469 5467 5465 5463 5460 5458 5456 5454 5452 5450 5447 5445 5444 5442 5438 5434 5431 5428 5425 5422 5418 5415 5412 5410 5407 5405 5403 5400 5398 5396 5395 5392
5486 5483 5481 5478 5475 5472 5470 5467 5465 5462 5460 5458 5456 5454 5452 5450 5448 5446 5444 5441 5439 5436 5434 5433 5429 5424 5421 5418 5415 5411 5408 5404 5402 5399 5397 5395 5393 5391 5388 5386 5384 5382
5476 5473 5471 5469 5466 5463 5461 5459 5456 5454 5451 5449 5448 5446 5444 5441 5439 5437 5435 5432 5430 5427 5425 5423 5420 5415 5410 5408 5404 5400 5397 5394 5391 5389 5387 5385 5383 5381 5379 5377 5375 5372
5466 5464 5462 5460 5457 5455 5452 5450 5448 5445 5443 5441 5439 5438 5435 5433 5430 5428 5426 5423 5420 5418 5415 5413 5411 5406 5401 5398 5394 5389 5385 5383 5380 5379 5377 5375 5373 5371 5370 5367 5365 5362
5458 5456 5454 5451 5449 5447 5445 5442 5440 5437 5435 5433 5431 5429 5427 5424 5421 5419 5417 5414 5411 5408 5405 5402 5400 5396 5391 5388 5384 5379 5374 5371 5370 5369 5367 5365 5363 5362 5360 5358 5355 5352
5450 5448 5446 5443 5441 5439 5437 5434 5432 5429 5427 5425 5422 5420 5418 5415 5412 5410 5408 5406 5402 5398 5395 5392 5389 5387 5382 5378 5374 5369 5364 5361 5359 5357 5356 5354 5353 5352 5350 5348 5345 5343
Wind_Speed
65 66 66 67 68 68 69 70 71 72 73 74 75 76 77 78 78 79 80 81 81 81 82 81 80 80 80 80 80 80 80 80 80 81 81 80 79 79 79 80 81 82
67 67 68 69 70 71 71 72 72 73 74 76 77 78 78 79 80 81 82 83 84 84 85 84 83 83 82 82 82 82 82 82 83 83 83 83 83 82 81 81 80 81
68 69 70 71 72 73 74 74 75 76 77 78 79 80 80 81 81 82 82 83 83 84 84 84 84 84 84 84 84 85 86 86 86 86 86 86 86 86 86 86 85 84
69 70 72 73 74 74 75 75 76 77 77 78 79 80 80 81 81 81 81 82 82 83 83 84 85 85 86 87 88 88 89 90 90 90 89 90 90 90 90 90 89 89
71 71 71 71 72 72 72 73 74 75 76 76 77 78 78 79 80 81 83 83 84 84 85 86 87 88 89 90 91 91 92 92 92 93 93 93 93 94 93 93 93 92
71 71 71 71 71 72 72 73 74 74 75 76 77 78 80 81 82 84 85 86 87 87 88 89 90 90 91 92 92 93 93 93 93 94 94 94 95 95 96 96 95 95
71 71 71 72 73 74 74 75 75 76 77 79 80 81 82 83 84 85 86 87 88 89 90 90 91 91 92 93 93 94 94 94 95 95 95 95 95 96 96 97 97 97
71 71 72 73 74 75 76 77 78 79 80 80 81 82 82 83 85 86 87 88 89 90 91 92 92 93 93 94 94 95 95 96 96 97 97 97 97 97 97 98 98 98
73 74 75 75 76 77 78 78 79 80 80 81 82 83 84 85 86 87 88 89 90 91 92 93 93 94 94 95 95 96 96 97 97 98 98 98 98 99 99 99 99 99
75 75 76 77 77 78 79 79 80 81 82 83 84 85 86 87 88 89 90 91 92 93 93 94 94 95 95 95 96 96 96 97 97 98 98 99 99 99 100 100 100 99
76 77 78 78 79 80 81 81 82 83 84 85 86 87 88 89 90 91 92 93 93 94 94 94 95 95 95 95 95 96 96 96 97 97 97 98 98 99 99 100 100 100
78 78 79 80 81 81 82 83 84 85 86 87 88 89 90 91 92 92 93 93 93 94 94 94 94 94 94 94 94 94 95 95 95 95 95 96 96 96 97 97 98 99
79 79 80 81 82 83 84 85 86 87 88 89 89 90 91 91 91 92 92 92 92 92 92 92 92 92 92 91 91 91 91 91 91 91 92 92 92 93 93 94 94 95
79 80 81 82 83 84 86 87 88 89 89 90 90 90 90 90 90 90 90 90 90 89 89 88 88 87 87 86 86 86 85 85 85 86 86 87 87 87 88 89 90 91
80 81 82 83 84 86 87 88 89 89 89 89 89 89 88 88 88 87 86 85 84 83 83 82 81 80 79 79 79 78 78 78 79 79 80 81 82 82 82 83 85 86
81 83 83 85 86 87 88 88 88 88 88 88 87 87 86 85 83 82 80 79 78 76 75 74 73 72 72 72 72 73 73 73 74 74 75 76 77 78 79 79 80 81
83 84 85 86 87 87 87 87 87 86 85 85 83 82 80 79 77 75 73 72 71 69 69 68 67 67 68 68 69 70 71 72 72 73 74 74 75 76 76 76 76 77
84 85 86 86 86 86 85 84 83 82 80 79 77 75 73 71 69 68 67 66 66 65 65 65 65 65 66 67 68 70 72 73 73 73 73 73 73 73 73 73 73 73
84 85 84 84 83 81 80 78 76 75 73 70 69 67 66 64 63 63 63 63 63 63 63 63 64 66 67 69 70 71 73 73 73 73 73 72 72 72 71 71 70 70
83 82 81 80 78 75 73 71 69 67 66 64 63 62 61 61 61 61 61 62 62 63 63 64 66 67 69 70 71 72 73 74 73 73 72 72 71 70 70 69 68 68
80 78 76 74 72 69 67 65 64 62 61 61 60 60 60 60 60 61 62 62 63 64 65 66 67 69 70 71 72 73 73 74 73 72 71 70 69 69 69 68 68 67
76 74 72 69 66 64 62 61 60 60 60 60 59 60 60 61 61 62 63 64 65 66 67 67 69 70 72 72 73 73 73 73 72 71 70 69 69 69 69 68 68 67
72 69 66 64 61 60 59 59 59 59 60 60 61 61 62 63 63 64 65 66 67 68 68 69 70 71 73 73 73 73 73 72 72 71 70 70 69 69 69 68 67 67
66 63 61 60 59 58 59 59 60 61 62 62 63 63 64 65 65 66 67 67 68 69 70 70 70 72 72 72 72 72 73 72 72 71 70 70 70 69 68 67 65 64
61 59 58 58 58 59 60 61 62 63 63 64 65 65 65 66 67 67 67 68 69 70 71 71 70 71 71 71 71 72 73 73 73 72 71 70 69 67 65 64 62 60
58 57 58 59 59 60 61 62 63 64 65 65 66 66 67 67 68 68 68 69 70 70 70 70 70 69 70 70 71 72 73 73 72 71 70 68 67 65 63 61 58 56
Wind_Direction
273 272 271 271 271 271 271 271 271 270 269 269 268 268 268 269 269 270 271 272 272 273 274 275 277 278 279 278 278 277 277 277 277 277 278 278 278 277 276 275 275 274
273 272 272 272 272 272 272 272 271 271 270 270 269 269 270 270 270 270 270 271 271 272 273 274 276 277 279 279 279 279 279 279 279 279 279 280 280 280 280 279 278 277
274 273 272 272 272 272 272 272 272 271 271 271 270 271 271 271 271 272 272 273 274 274 275 275 276 277 277 278 278 279 279 279 280 280 280 281 281 281 281 281 280 279
274 273 273 273 273 273 273 273 273 273 273 273 273 273 273 274 275 276 277 278 278 278 278 278 278 278 278 278 279 279 279 279 279 279 280 280 280 280 280 280 280 279
274 274 274 275 276 276 276 276 276 276 276 276 276 276 277 278 278 279 279 280 280 280 280 279 279 279 280 280 280 280 280 279 279 279 279 279 279 279 279 278 278 278
276 276 276 276 276 276 277 277 278 278 279 279 279 279 280 280 280 280 281 281 281 281 281 281 281 280 280 280 280 280 280 280 280 279 279 278 278 278 278 278 277 277
278 278 278 278 278 279 279 280 281 281 282 282 283 283 283 282 282 282 282 282 283 283 282 282 282 282 281 281 281 281 280 280 280 279 279 278 278 277 277 277 276 276
281 281 282 282 282 283 283 284 284 284 284 284 284 284 284 284 283 283 283 283 283 283 283 283 282 282 282 282 281 281 281 280 280 279 279 278 278 277 277 276 276 275
285 285 285 285 285 285 285 285 285 285 285 285 285 285 285 285 284 284 284 284 284 284 283 283 283 283 282 282 282 281 281 281 280 280 280 279 278 278 277 277 276 275
286 286 285 285 285 285 285 286 286 286 286 287 287 287 287 287 287 286 286 286 285 285 284 284 284 283 283 282 282 281 280 280 280 280 279 279 278 278 277 277 276 276
286 286 287 287 287 288 288 288 289 289 289 289 289 289 289 288 288 287 287 286 286 285 285 284 284 284 283 282 282 281 281 280 279 279 279 278 278 278 277 277 276 276
288 288 288 289 289 290 290 290 290 290 290 290 290 289 289 288 288 287 287 286 286 285 285 285 284 284 283 283 282 281 281 280 280 279 279 278 278 277 277 277 276 276
289 289 290 290 290 291 291 291 291 291 290 290 289 289 288 288 288 287 287 287 286 286 285 285 284 284 284 283 283 282 282 281 280 280 279 279 278 278 277 276 276 275
289 290 290 290 291 291 291 291 291 290 290 290 289 289 289 288 288 287 287 287 286 286 286 285 285 285 284 284 283 283 283 282 282 281 280 280 279 279 278 278 277 276
289 290 290 290 290 290 291 291 291 291 290 290 290 289 289 288 288 287 287 287 287 287 286 286 286 286 286 285 285 284 284 283 283 282 282 281 281 280 280 280 279 279
289 289 290 290 290 291 291 291 291 291 291 290 290 290 289 289 288 288 288 287 287 287 288 288 288 288 287 287 286 286 285 285 284 284 284 283 283 282 282 282 281 281
289 290 291 291 291 292 292 292 292 291 291 290 290 290 289 289 289 289 289 288 288 288 288 288 288 288 288 287 287 287 287 287 287 286 286 286 285 284 284 283 282 282
290 291 292 292 292 292 292 292 291 291 291 290 290 290 290 290 289 289 289 288 288 288 288 288 288 288 288 288 288 289 289 289 289 288 288 287 287 286 285 284 283 282
291 292 292 292 292 292 292 291 291 290 290 290 290 290 289 289 288 288 288 288 288 288 288 288 288 288 289 289 289 290 290 290 290 290 289 289 288 287 286 285 284 283
292 292 292 292 292 291 290 290 289 289 289 288 288 288 288 288 288 288 288 289 289 289 289 289 289 289 289 289 290 290 290 290 290 290 290 289 289 288 287 286 286 285
292 291 291 291 290 290 289 289 288 288 288 288 288 288 288 289 289 289 289 290 290 290 290 290 290 290 290 290 291 291 291 291 291 291 290 290 289 289 288 288 287 287
291 290 290 290 289 288 288 288 288 289 289 289 290 290 290 290 290 290 290 290 291 291 291 291 291 291 291 292 292 292 292 291 291 291 290 290 290 289 289 289 289 288
290 289 289 289 288 288 289 289 290 290 291 291 291 291 291 291 291 292 291 291 291 291 292 292 292 292 292 293 293 292 292 291 291 291 291 291 290 290 290 290 290 289
289 289 288 288 289 289 290 290 291 291 291 291 291 291 292 292 292 292 292 292 292 292 292 293 293 293 293 293 293 292 292 291 291 291 291 291 290 290 290 290 289 289
288 288 289 289 290 290 291 291 291 291 291 291 291 291 291 291 291 292 292 293 293 293 294 294 294 294 293 293 293 292 291 291 291 291 291 290 290 290 290 289 288 287
288 289 289 290 290 290 290 290 290 290 290 290 290 291 291 292 292 292 293 293 294 294 294 294 294 294 293 293 292 292 291 291 291 291 290 290 289 289 288 288 286 285